DELTA 1 DEB, 7045

Orbit data source: Space-Track

DELTA 1 DEB, 7045 is space debris in SSO originally from a launch on Tue, 06 Nov 1973 UTC launched from the Air Force Western Test Range (AFWTR). Debris objects in space refer to the collection of defunct objects orbiting the Earth. Examples of debris include non-operational satellites, rocket bodies, and fragments generated from explosions, collisions, or faulty payload assembly.

Loading next visibility...
Identifier
7045, 1973-086AM
Orbit
SSO
Last TLE update
13 hours ago
Origin
Manufacturer
Unknown
Mission
Spacecraft
Bus & Motor
Unknown
Mass
Unknown
Launch date (UTC)
1973-11-06 (52 years ago)
Launch vehicle
Unknown
Launch site
Air Force Western Test Range (AFWTR)
Object type
Payload
Rocket body
Debris
Shape & HBR
Unknown
Radar Cross Section
Medium (>0.1 m² and <1 m²)

Expand to show TLE details & history

TLE from 13 hours ago
0 DELTA 1 DEB
1  7045U 73086AM  25126.57001987  .00000010  00000-0  50278-3 0  9999
2  7045 102.6136 137.4816 0076500 343.1426 134.9023 12.26122904297850
Epoch: 2025-05-06T13:40Z
Definitive object data (Epoch: 2025-05-06T13:40:49.716Z)
Latitude
58.99388°
Longitude
-90.64394°
Altitude
1,618.877 km
Speed
7.047 km/s
True Right ascension
22h 36m 55s
True Declination
58° 51' 30"
Sunlit
Object was in daylight at TLE epoch
Visualization TLE readout
Latitude
61.60496°
Longitude
43.84355°
Altitude
1,567.48 km
Speed
7.094 km/s
Apparent Right ascension
02h 22m 24s
Apparent Declination
36° 00' 40"
Sunlit
Object is in daylight
Visualization observer readout
Local Sidereal Time
11:05:49
Azimuth
322.259° NNW
Elevation
-1.637°
Doppler factor
1
Orbital elements
Apogee altitude
1,624.368 km
Perigee altitude
1,502.859 km
Semi-major axis
7,941.751 km
Eccentricity
0.00765
Inclination
102.6136°
RAAN
137.4816°
Arg. of periapsis
343.1426°
True anomaly
135.51905°
Mean anomaly
134.9023°
Eccentric anomaly
135.21109°
Mean motion
3.06668 °/min
BSTAR
0.00050278
Orbital period
117.39 mins
Loading maneuver chart data...
Loading SW <> Apogee altitude chart data...
Loading historical data...
Loading historical data...
Loading historical data...
Loading historical data...
Loading historical data...
Loading historical data...
Loading historical data...

DELTA 1 DEB Visibility forecast

Observer location: undefined°, undefined°

Span
Click to sort rows by Start time (UTC) header in descending order
Start Az.
Max El. time (UTC)
Max El. Az.
Max El.
End time (UTC)
End Az.
17 mins2025-05-07 13:09:25.189Z26.124° NE2025-05-07 13:18:25.189Z112.582° SE40.39°2025-05-07 13:26:25.189Z181.269° SSW
14 mins2025-05-07 15:06:25.189Z358.11° N2025-05-07 15:12:25.189Z306.593° NW30.547°2025-05-07 15:20:25.189Z242.139° WSW
11 mins2025-05-07 22:31:25.189Z89.742° E2025-05-07 22:36:25.189Z49.073° ENE21.171°2025-05-07 22:42:25.189Z4.636° NNE
15 mins2025-05-08 00:23:25.189Z160.109° S2025-05-08 00:30:25.189Z311.457° NW44.964°2025-05-08 00:38:25.189Z341.293° N
9 mins2025-05-08 02:22:25.189Z237.746° WSW2025-05-08 02:26:25.189Z268.474° W16.625°2025-05-08 02:31:25.189Z305.203° NW
|